Preview of NWS' New Version of Forecast
This preview is not operational and should not be used for support decisions.
Latest weather observations around

Pawtucket, North Central State Airport (KSFZ)

Using English Units (Switch to International System of Units)
Date/ Time (EDT) Wind (mph) Vis. (mi) Weather Sky Cond. Temp (°F) Rel. Humidity Wind Chill (°F) Heat Index (°F) Pressure Precip. (in)
Air Dwpt 6 hour Altimeter (inHg) Sea level (inHg) 1 hr 3 hr 6 hr
Max Min
Sep 23 04:56 WSW 6 10 Clear CLR 67 64     90%     29.93        
Sep 23 03:56 WSW 7 10 Clear CLR 67 64     90%     29.93        
Sep 23 02:56 3 10 Clear CLR 66 64     93%     29.95        
Sep 23 01:56 5 10 Clear CLR 67 63     87%     29.97        
Sep 23 00:56 5 10 Clear CLR 67 63     87%     29.99        
Sep 22 23:56 SW 5 10 Clear CLR 66 62     87%     29.99        
Sep 22 22:56 SW 6 10 Clear CLR 67 61     81%     30.02        
Sep 22 21:56 5 10 Clear CLR 67 60     79%     30.03        
Sep 22 20:56 SW 5 10 Clear   67 62     84%     30.04        
Sep 22 19:56 SSW 6 10 Clear CLR 69 64     84%     30.04        
Sep 22 18:56 SSW 5 10 Clear CLR 71 64     79%   72 30.04        
Sep 22 17:56 SW 8 10 Clear CLR 76 64     67%   76 30.04        
Sep 22 16:56 SW 6 10 Clear CLR 76 62     62%   76 30.05        
Sep 22 15:56 5 10 Clear CLR 81 64     56%   83 30.06        
Sep 22 14:56 WSW 11 10 Clear CLR 81 61     51%   82 30.08        
Sep 22 13:56 WSW 8 10 Clear CLR 81 60     49%   82 30.1        
Sep 22 12:56 7 10 Clear CLR 80 59     49%   81 30.12        
Sep 22 11:56 SW 6 10 Clear CLR 80 62     54%   81 30.14        
Sep 22 10:56 SW 8 10 Clear CLR 77 61     58%   77 30.15        
Sep 22 09:56 SW 7 10 Clear CLR 73 63     71%   73 30.17        
Sep 22 08:56 SW 5 10 Clear CLR 67 62     84%     30.18        
Sep 22 07:56 3 10 Clear CLR 61 59     93%     30.17        
Sep 22 06:56 SSW 3 10 Clear CLR 57 56     96%     30.16        
Sep 22 05:56 Calm 10 Clear CLR 57 55     93%     30.16        
Sep 22 04:56 Calm 10 Clear CLR 55 54     96%     30.17        
Sep 22 03:56 SW 3 10 Clear CLR 58 55     90%     30.17        
Sep 22 02:56 Calm 10 Clear CLR 60 55     83%     30.17        
Sep 22 01:56 S 3 10 Clear CLR 60 56     86%     30.19        
Sep 22 00:56 Calm 10 Clear CLR 58 56     93%     30.2        
Sep 21 23:56 3 10 Clear CLR 61 57     87%     30.19        
Sep 21 22:56 Calm 10 Clear CLR 62 57     84%     30.19        
Sep 21 21:56 Calm 10 Clear CLR 64 59     84%     30.19        
Sep 21 20:56 Calm 10 Clear CLR 65 58     78%     30.18        
Sep 21 19:56 Calm 10 Clear CLR 66 57     73%     30.17        
Sep 21 18:56 S 3 10 Clear CLR 70 58     66%     30.17        
Sep 21 17:56 S 3 10 Clear CLR 75 60     60%   75 30.16        
Sep 21 16:56 3 10 Clear CLR 78 60     54%   78 30.16        
Sep 21 15:56 NW 3 10 Clear CLR 80 61     52%   81 30.16        
Sep 21 14:56 3 10 Clear CLR 82 60     47%   82 30.17        
Sep 21 13:56 Calm 10 Clear CLR 80 60     51%   81 30.18        
Sep 21 12:56 3 10 Clear CLR 79 60     52%   79 30.2        
Sep 21 11:56 ENE 3 10 Clear CLR 79 58     49%   79 30.21        
Sep 21 10:56 NNE 5 10 Clear CLR 75 57     54%   75 30.22        
Sep 21 09:56 NNE 6 10 Clear CLR 72 56     57%   72 30.22        
Sep 21 08:56 NNW 3 10 Clear CLR 68 55     63%     30.22        
Sep 21 07:56 NNW 3 10 Clear CLR 62 53     72%     30.21        
Sep 21 06:56 Calm 10 Clear CLR 54 49     83%     30.19        
Sep 21 05:56 NW 3 10 Clear CLR 57 49     74%     30.18        
Sep 21 04:56 Calm 10 Clear CLR 53 49     86%     30.16        
Sep 21 03:56 WNW 5 10 Clear CLR 55 49     80%     30.16        
Sep 21 02:56 NW 3 10 Clear CLR 59 49     69%     30.16        
Sep 21 01:56 WNW 5 10 Clear CLR 59 49     69%     30.15        
Sep 21 00:56 W 5 10 Clear CLR 57 52     83%     30.14        
Sep 20 23:56 W 7 10 Clear CLR 59 52     78%     30.14        
Sep 20 22:56 W 5 10 Clear CLR 60 52     75%     30.15        
Sep 20 21:56 WSW 3 10 Clear CLR 59 54     83%     30.15        
Sep 20 20:56 W 5 10 Clear CLR 60 56     86%     30.15        
Sep 20 19:56 W 5 10 Clear   62 57     84%     30.14        
Sep 20 18:56 W 3 10 Clear CLR 64 57     78%     30.13        
Sep 20 17:56 W 5 10 Clear   72 56     57%   72 30.12        
Sep 20 16:56 WNW 7 10 Clear CLR 75 56     52%   75 30.12        
Sep 20 15:56 6 10 Clear CLR 76 54     47%   75 30.12        
Sep 20 14:56 WNW 8 10 Clear CLR 76 53     45%   75 30.12        
Sep 20 13:56 NW 7 10 Clear CLR 75 55     50%   75 30.14        
Sep 20 12:56 W 8 10 Clear CLR 73 54     51%   72 30.15        
Sep 20 11:56 NW 8 10 Clear CLR 71 53     53%   70 30.18        
Sep 20 10:56 NNW 7 10 Clear CLR 67 51     57%     30.2        
Sep 20 09:56 WNW 6 10 Clear CLR 63 49     60%     30.21        
Sep 20 08:56 W 6 10 Clear CLR 57 49     74%     30.23        
Sep 20 07:56 Calm 10 Clear CLR 49 45     86%     30.22        
Sep 20 06:56 Calm 10 Clear CLR 44 42     93%     30.22        
Sep 20 05:56 W 3 10 Clear CLR 43 41     93% 41   30.21        
Sep 20 04:56 W 6 10 Clear CLR 47 43     86% 44   30.21        
Sep 20 03:56 W 3 10 Clear CLR 43 42     97% 41   30.2        
Sep 20 02:56 Calm 10 Clear CLR 44 43     96%     30.22        
May 14 20:56   10 Clear CLR 58 53     84%     29.91        
May 14 11:56   10 Cloudy OVC021 63 52     67%     30        
May 14 10:56   10 Cloudy OVC017 58 49     72%     30        
May 14 10:19   10 Cloudy OVC015 57 48     72%     30.01        
May 13 13:56   10 Mostly Cloudy BKN026 BKN120 57 46     67%     30.17        
May 13 05:38   0.5 Light Rain and Fog OVC002 46 46     100%     30.14   0    
Notice The following observation data may not be complete
May 13 01:23   0.5 Fog OVC002          %              
Notice The following observation data may not be complete
May 12 20:09   4 Light Rain and Fog/Mist OVC004          %         0    
May 12 18:56   7 Light Rain OVC004 50 49     96%     30.1   0    
May 12 15:03   3 Light Rain and Fog/Mist OVC004 50 48     94%     30.12   0    
May 12 12:56   10 Light Rain FEW009 BKN039 OVC048 49 47     93%     30.16   0    
May 11 22:56   10 Clear CLR 47 42     83%     30.13        
May 11 16:56   10 Clear CLR 68 34     28%     29.99        
Jun 12 01:56 3 10 Clear CLR 68 63     84%     29.96 29.99      
Jun 11 22:56 5 10 Clear CLR 72 63     73%   72 29.97 30      
Jun 11 21:56 3 10 Clear CLR 73 63     71%   73 29.97 30.01      
Jun 11 11:56 6 10 Clear CLR 84 66     55%   86 30.02        
Jun 11 02:56 5 10 Clear CLR 65 58     78%     30.02 30.06      
Jun 10 09:56 3 10 Clear CLR 78 56     47%   78 29.99 30.03      
Jun 10 01:56 SW 3 10 Clear CLR 56 53     90%     29.87 29.92      
Jun 10 00:56 SW 3 10 Clear CLR 56 53     90%     29.86        
Jun 09 23:56 Calm 10 Clear CLR 58 53     84%     29.85        
Notice The following observation data may not be complete
Jun 09 15:20 NNW 15 10 Mostly Cloudy BKN060   55      %     29.67        
Jun 09 03:56 NNW 6 10 Cloudy OVC120 53 49     86%     29.71        
Jun 07 18:56 ESE 3 10 Clear CLR 65 46     50%     29.99        
Jun 07 11:56 NE 10 10 Cloudy BKN070 OVC080 62 51     67%     29.97 30.03      
Jun 06 14:37 NE 16 10 Cloudy OVC011 48 46     93% 42   29.82        
Jun 06 03:22 NE 13 8 Rain OVC007 50 48     94% 45   29.76   0    
Jun 05 21:56 NE 8 6 Light Rain and Fog/Mist OVC005 52 51     97%     29.82   0